Weather History for Kirksville, MO

Change the Weather History Date:

Monday, February 11, 2013

  Actual Average Record
Temperature  
Mean Temperature 34 °F 29 °F  
Max Temperature 44 °F 38 °F 68 °F (1932)
Min Temperature 24 °F 19 °F -17 °F (1981)
Degree Days  
Heating Degree Days 31 36  
Month to date heating degree days 369 411  
Since 1 July heating degree days 3745 3958  
Cooling Degree Days 0 0  
Month to date cooling degree days 0 0  
Year to date cooling degree days 0 0  
Moisture  
Dew Point 23 °F    
Average Humidity 63    
Maximum Humidity 81    
Minimum Humidity 45    
Precipitation  
Precipitation 0.00 in 0.06 in 0.76 in (2009)
Month to date precipitation 0.99 0.61  
Year to date precipitation 3.09 1.88  
Sea Level Pressure  
Sea Level Pressure 30.03 in    
Wind  
Wind Speed 15 mph (WNW)    
Max Wind Speed 33 mph    
Max Gust Speed 47 mph    
Visibility 10 miles    
Events      
T = Trace of Precipitation, MM = Missing Value Source: NWS Daily Summary

Daily Weather History Graph

Daily Weather History Graph

Search for Another Location

Airport:

Trip Planner

Search our weather history database for the weather conditions in past years. The results will help you decide how hot, cold, wet, or windy it might be!

Date:

Astronomy

Feb. 11, 2013 Rise Set
Actual Time 7:07 AM CST 5:41 PM CST
Civil Twilight 6:39 AM CST 6:09 PM CST
Nautical Twilight 6:07 AM CST 6:41 PM CST
Astronomical Twilight 5:36 AM CST 7:13 PM CST
Moon 7:32 AM CST (2/11) 7:39 PM CST (2/11)
Length of Visible Light 11h 29m
Length of Day
10h 33m
Waxing Crescent, 3% of the Moon is Illuminated
Feb 11
Waxing Crescent
Feb 17
First Quarter
Feb 25
Full
Mar 4
Last Quarter
Mar 11
New

Hourly Weather History & Observations

Time (CST) Temp. Windchill Dew Point Humidity Pressure Visibility Wind Dir Wind Speed Gust Speed Precip Events Conditions
12:55 AM 34.0 °F 23.0 °F 21.9 °F 61% 29.78 in 10.0 mi West 18.4 mph 36.8 mph N/A   Overcast
1:55 AM 34.0 °F 21.5 °F 21.9 °F 61% 29.80 in 10.0 mi West 24.2 mph 36.8 mph N/A   Overcast
2:55 AM 33.1 °F 21.2 °F 21.0 °F 61% 29.83 in 10.0 mi West 20.7 mph 36.8 mph N/A   Overcast
3:55 AM 33.1 °F 23.4 °F 21.0 °F 61% 29.86 in 10.0 mi West 13.8 mph 24.2 mph N/A   Overcast
4:55 AM 30.9 °F 18.7 °F 19.9 °F 64% 29.90 in 10.0 mi West 19.6 mph 29.9 mph N/A   Scattered Clouds
5:55 AM 32.0 °F 19.5 °F 19.9 °F 61% 29.93 in 10.0 mi West 21.9 mph 32.2 mph N/A   Mostly Cloudy
6:55 AM 32.0 °F 19.2 °F 21.9 °F 66% 29.96 in 10.0 mi West 23.0 mph 31.1 mph N/A   Overcast
7:55 AM 30.2 °F 18.1 °F 21.2 °F 69% 29.96 in 10.0 mi West 18.4 mph 31.1 mph N/A   Clear
8:55 AM 32.0 °F 19.5 °F 21.0 °F 64% 30.03 in 10.0 mi West 21.9 mph 32.2 mph N/A   Clear
9:55 AM 34.0 °F 22.4 °F 21.9 °F 61% 30.06 in 10.0 mi West 20.7 mph 29.9 mph N/A   Partly Cloudy
10:55 AM 37.0 °F 27.7 °F 23.0 °F 57% 30.07 in 10.0 mi West 16.1 mph 29.9 mph N/A   Clear
11:55 AM 39.0 °F 29.9 °F 24.1 °F 55% 30.07 in 10.0 mi WNW 17.3 mph 24.2 mph N/A   Clear
12:55 PM 39.9 °F 31.8 °F 24.1 °F 53% 30.07 in 10.0 mi West 15.0 mph 26.5 mph N/A   Clear
1:55 PM 42.1 °F 34.2 °F 25.0 °F 51% 30.07 in 10.0 mi West 16.1 mph 27.6 mph N/A   Clear
2:55 PM 44.1 °F 37.1 °F 25.0 °F 47% 30.07 in 10.0 mi West 15.0 mph 25.3 mph N/A   Clear
3:55 PM 44.1 °F 36.5 °F 25.0 °F 47% 30.08 in 10.0 mi West 17.3 mph 25.3 mph N/A   Clear
4:55 PM 41.0 °F 33.5 °F 24.1 °F 51% 30.09 in 10.0 mi West 13.8 mph - N/A   Clear
5:55 PM 37.0 °F 31.0 °F 24.1 °F 59% 30.11 in 10.0 mi WNW 8.1 mph - N/A   Clear
6:55 PM 34.0 °F 28.0 °F 24.1 °F 67% 30.13 in 10.0 mi WNW 6.9 mph - N/A   Clear
7:55 PM 32.0 °F 27.5 °F 24.1 °F 73% 30.15 in 10.0 mi WNW 4.6 mph - N/A   Clear
8:55 PM 28.9 °F 22.8 °F 23.0 °F 78% 30.16 in 10.0 mi NNW 5.8 mph - N/A   Clear
9:55 PM 28.0 °F 21.7 °F 21.9 °F 78% 30.17 in 10.0 mi NW 5.8 mph - N/A   Clear
10:55 PM 26.1 °F 21.9 °F 21.9 °F 84% 30.18 in 10.0 mi WNW 3.5 mph - N/A   Clear
11:55 PM 24.1 °F 18.2 °F 21.0 °F 88% 30.18 in 9.0 mi West 4.6 mph - N/A   Clear